Lid_Strength_Index
2 0 -1 -1 -1 -1 -1 -1 -1 -1 -1 -1 -1 -1 -1 -1 -1 -1 -1 -1 -1 -1 -1 -1 -1 -1 -1 -1 -1 -1 -2 -2 -2 -1 -1 -1 -1 -1 -1 -1 -1 -1 -2
1 -0 -1 -1 -1 -1 -1 -1 -1 -1 -1 -1 -1 -1 -1 -1 -1 -1 -1 -1 -1 -1 -1 -2 -2 -2 -1 -1 -1 -1 -2 -2 -1 -1 -1 -1 -1 -1 -1 -1 -1 -1 -1
2 -0 -0 -1 -1 -1 -1 -1 -1 -1 -1 -1 -1 -1 -1 -1 -1 -1 -1 -2 -1 -1 -2 -2 -2 -2 -2 -1 -1 -1 -1 -2 -1 -1 -0 -0 -0 -1 -1 -1 -1 -2 -1
1 0 -0 -1 -1 -1 -1 -1 -1 -1 -1 -1 -1 -1 -1 -1 -1 -1 -1 -2 -1 -1 -2 -2 -2 -2 -2 -1 -1 -1 -1 -2 -1 -0 -0 -1 -0 -1 -1 -1 -2 -1 -1
1 -0 -1 -1 -1 -1 -1 -1 -1 -1 -1 -1 -1 -1 -1 -1 -2 -2 -2 -2 -2 -1 -2 -2 -2 -2 -2 -1 -1 -1 -1 -1 -0 -0 0 -0 -0 -1 -1 -1 -1 -1 -1
4 1 -1 -2 -1 -1 -1 -1 -1 -1 -2 -1 -1 -1 -1 -2 -1 -2 -2 -2 -2 -1 -1 -2 -2 -2 -2 -1 -1 -1 -1 -1 -0 0 0 1 -0 -1 -1 -1 -2 -1 -1
6 5 4 -0 -2 -1 -1 -1 -1 -1 -1 -2 -1 -1 -1 -1 -1 -1 -2 -2 -2 -2 -1 -1 -1 -1 -2 -2 -1 -1 -1 -0 -0 0 0 1 0 -1 -1 -1 -2 -2 -1
6 5 4 2 1 -1 -2 -1 -1 -1 -1 -1 -1 -1 -1 -1 -1 -2 -1 -1 -1 -1 -1 -1 -1 -1 -1 -1 -1 -1 -0 0 1 0 0 1 -0 -1 -1 -1 -2 -1 -2
7 7 6 5 3 1 1 -1 -2 -2 -2 -2 -2 -1 -1 -1 -1 -1 -1 -1 -1 -1 -1 -1 -1 -1 -1 -1 -1 -0 1 1 1 0 -0 0 -1 -2 -2 -1 -1 -2 -2
9 9 8 7 6 4 3 1 -1 -2 -2 -1 -1 -1 0 0 0 0 0 -1 -1 -1 -1 -1 -1 -1 -1 -1 -0 0 1 1 1 0 1 -0 -1 -2 -2 -2 -2 -2 -1
10 10 9 9 8 6 6 3 1 -1 -1 -1 -1 -0 1 -0 -0 -0 0 -0 -1 -1 -1 -1 -1 -1 -0 0 1 1 2 0 1 1 0 0 -1 -2 -2 -2 -2 -2 -2
11 11 10 10 9 8 7 6 4 3 1 -0 -1 -0 -0 -0 -0 -0 1 1 -0 -0 -1 -1 -1 -0 1 0 0 1 1 2 1 1 0 0 -1 -2 -2 -2 -2 -2 -2
13 12 11 10 9 9 8 7 6 5 3 1 0 -0 -0 -0 -0 0 0 1 1 2 1 -0 0 1 1 1 1 1 2 2 2 1 1 0 -1 -2 -2 -1 -2 -2 -2
13 12 11 11 10 10 9 8 7 6 5 3 2 0 0 -0 -0 -0 0 1 1 1 2 1 2 1 1 1 2 2 3 2 1 0 1 1 -0 -1 -1 -2 -2 -2 -2
14 12 12 12 12 10 11 10 9 8 5 5 4 3 1 1 0 -0 0 0 1 2 2 2 2 2 3 3 2 2 2 2 1 0 0 3 1 -1 -1 -2 -2 -2 -2
14 13 12 12 12 11 11 11 11 10 7 5 5 5 2 2 2 0 0 0 0 0 1 1 2 2 2 2 3 3 2 2 1 0 -0 0 1 0 -1 -2 -2 -2 -2
14 14 13 12 12 11 11 11 11 10 9 8 6 5 5 5 4 4 2 0 0 -0 1 1 2 3 3 3 2 2 2 3 2 1 1 1 0 2 0 -1 -1 -2 -2
15 15 14 13 12 12 12 12 11 11 11 10 7 6 6 6 6 6 3 3 1 0 0 1 2 3 3 3 4 3 3 3 3 3 2 2 1 0 1 -0 -1 -1 -2
15 15 14 13 13 12 12 12 12 11 11 11 9 8 6 6 6 4 5 4 4 4 0 1 1 2 3 3 4 3 3 2 3 2 3 3 2 1 0 1 1 1 -1
16 16 15 13 13 13 12 12 12 11 11 11 10 9 7 6 6 6 5 5 5 5 5 1 1 1 2 3 3 3 2 3 2 3 3 3 3 2 1 1 1 1 1
16 16 15 14 13 13 13 13 13 12 11 11 10 9 8 6 6 6 6 6 5 6 6 7 1 2 2 2 3 3 3 2 2 3 2 3 3 3 2 1 1 1 0
17 16 14 14 13 13 13 12 12 12 12 10 9 8 7 7 6 5 6 6 5 5 6 6 6 2 2 2 4 4 6 5 3 3 3 3 3 3 3 2 1 1 1
17 16 14 14 13 13 13 13 13 12 12 12 11 9 8 6 5 3 3 4 4 4 6 7 7 6 4 3 2 4 6 7 5 7 4 4 4 4 4 3 2 2 2
16 16 15 14 14 13 14 14 15 15 16 15 14 12 10 7 5 4 3 4 4 6 9 7 6 7 4 4 2 3 5 4 6 8 8 4 4 4 3 3 3 3 3
16 16 15 15 14 14 14 14 15 16 15 15 15 14 12 9 7 6 5 4 5 5 8 7 6 8 8 3 3 3 6 4 4 6 8 8 4 4 3 3 3 3 3
16 16 15 15 15 14 14 15 15 16 16 16 16 15 13 11 10 8 5 4 4 5 8 8 7 6 7 3 2 2 4 5 6 4 5 7 5 9 4 3 3 3 3